[[{"header":{"parameterUnit":"m.s-1","parameterCategory":2,"la1":30.2991,"la2":30.254,"lo1":-89.0895,"lo2":-89.0444,"dy":0.0017,"dx":0.0017,"nx":28,"ny":28,"refTime":"2024-10-18T09:00:00:Z","depth":"0","parameterNumber":2,"parameterNumberName":"U-component_of_CURRENTS"},"data":[0,0,0,0,0,0,0,0,0,0,0,0,0,0,0,0,0,0,0,0,0,0,0,0,0,0,0,0,0,0,0,0,0,0,0,0,0,0,0,0,0,0,0,0,0,0,0,0,0,0,0,0,0,0,0,0,0,0,-0.2598,-0.2599,0,-0.2639,-0.2639,-0.2639,-0.2582,-0.258,-0.2579,-0.2577,-0.2521,-0.2521,-0.2521,0,0,0,0,0,0,0,0,0,0,0,0,0,-0.2468,-0.247,-0.2598,-0.2599,-0.2599,-0.2639,-0.2639,-0.2639,-0.2582,-0.258,-0.2578,-0.2576,-0.2521,-0.2521,-0.2521,0,0,0,0,0,0,0,0,0,0,0,0,0,-0.2515,-0.2471,-0.2598,-0.2578,-0.2577,-0.2639,-0.2639,-0.2639,-0.2583,-0.258,-0.2578,-0.2575,-0.2521,-0.2521,-0.2521,-0.2574,0,0,-0.2522,-0.2522,0,0,0,0,0,0,0,0,-0.2512,-0.2519,-0.258,-0.258,-0.2579,-0.2605,-0.2573,-0.2614,-0.2583,-0.2577,-0.2577,-0.2574,-0.2544,-0.2543,-0.2552,-0.2571,-0.2569,-0.2522,-0.2522,-0.2522,-0.2522,0,0,0,0,0,0,0,-0.2509,-0.2517,-0.2611,-0.2581,-0.2581,-0.2567,-0.257,-0.258,-0.257,-0.2577,-0.2574,-0.2585,-0.2542,-0.2553,-0.2551,-0.2568,-0.2522,-0.2522,-0.2522,-0.2522,-0.261,-0.2612,0,0,0,0,0,0,-0.2514,-0.2515,-0.2609,-0.2612,-0.2542,-0.2571,-0.2575,-0.2597,-0.2572,-0.2568,-0.2587,-0.2582,-0.2554,-0.255,-0.2548,-0.2592,-0.2522,-0.2522,-0.2522,-0.2608,-0.2611,-0.2613,0,0,0,0,0,0,-0.2512,-0.2523,-0.2608,-0.2566,-0.2576,-0.2577,-0.2601,-0.2599,-0.2597,-0.2581,-0.2573,-0.2586,-0.2551,-0.2548,-0.2565,-0.2589,-0.2522,-0.2522,-0.2605,-0.2609,-0.2612,-0.269,0,0,0,0,0,0,-0.2508,-0.2522,-0.2536,-0.2567,-0.2579,-0.2663,-0.2604,-0.2602,-0.261,-0.2603,-0.2579,-0.2571,-0.2549,-0.2566,-0.2566,-0.2588,-0.2522,-0.2603,-0.2607,-0.2611,-0.2685,-0.2696,-0.2705,0,0,0,0,0,-0.2503,-0.2553,-0.2537,-0.2548,-0.2599,-0.2666,-0.2672,-0.266,-0.2613,-0.2641,-0.2613,-0.2571,-0.2591,-0.2568,-0.2567,-0.2591,-0.2601,-0.2606,-0.2611,-0.268,-0.2694,-0.2705,0,0,0,0,0,0,-0.2507,-0.2553,-0.2535,-0.2595,-0.2629,-0.2658,-0.2685,-0.2665,-0.2667,-0.2648,-0.2606,-0.26,-0.2624,-0.2607,-0.2582,-0.2631,-0.2588,-0.2593,-0.2641,-0.2653,-0.2663,-0.2647,-0.2523,0,0,0,0,0,-0.2514,-0.2557,-0.2595,-0.2639,-0.2661,-0.2666,-0.2685,-0.2681,-0.269,-0.2686,-0.2667,-0.2649,-0.2652,-0.2649,-0.2656,-0.2687,-0.2661,-0.2702,-0.2712,-0.2721,-0.271,-0.2703,-0.2711,-0.263,-0.263,-0.263,0,0,-0.2526,-0.2557,-0.2578,-0.2641,-0.2661,-0.2702,-0.2671,-0.2718,-0.2733,-0.2682,-0.2696,-0.2689,-0.2671,-0.2705,-0.2713,-0.2686,-0.2738,-0.2727,-0.2734,-0.2718,-0.2709,-0.2716,-0.2723,-0.2633,-0.2633,-0.2632,0,0,-0.257,-0.2601,-0.2642,-0.268,-0.2725,-0.274,-0.2752,-0.2785,-0.2783,-0.2814,-0.2772,-0.278,-0.2789,-0.278,-0.2773,-0.2847,-0.2796,-0.2852,-0.2884,-0.2878,-0.2884,-0.2888,-0.289,-0.2894,-0.2851,-0.2852,-0.2852,0,-0.2572,-0.2624,-0.2666,-0.2713,-0.2737,-0.2753,-0.279,-0.2815,-0.2841,-0.2843,-0.2828,-0.2835,-0.2822,-0.2839,-0.2862,-0.2867,-0.2855,-0.2835,-0.2889,-0.2893,-0.2896,-0.2896,-0.2899,-0.2856,-0.2856,-0.2855,-0.2855,0,-0.2634,-0.2674,-0.2712,-0.2761,-0.2804,-0.2852,-0.2889,-0.292,-0.2911,-0.2917,-0.2943,-0.2939,-0.293,-0.2943,-0.292,-0.2944,-0.2928,-0.2905,-0.285,-0.2908,-0.2906,-0.2908,-0.2862,-0.2861,-0.2859,-0.2858,0,0,-0.2621,-0.2728,-0.2732,-0.275,-0.2827,-0.2864,-0.2918,-0.2962,-0.2973,-0.3005,-0.3014,-0.3033,-0.3016,-0.3008,-0.2991,-0.299,-0.3016,-0.2958,-0.2956,-0.2948,-0.3009,-0.295,-0.2946,-0.2998,-0.2998,-0.2999,-0.3006,0,-0.2634,-0.2713,-0.2768,-0.2824,-0.286,-0.2909,-0.2956,-0.2999,-0.3024,-0.3052,-0.3055,-0.3066,-0.3046,-0.304,-0.3041,-0.3019,-0.3021,-0.3016,-0.2964,-0.2962,-0.2891,-0.2945,-0.2841,-0.2834,-0.3008,-0.3008,-0.3008,0,-0.2644,-0.2696,-0.2755,-0.2835,-0.2856,-0.2894,-0.2951,-0.2997,-0.3056,-0.3078,-0.3097,-0.3099,-0.311,-0.3082,-0.3072,-0.3069,-0.3041,-0.3027,-0.3026,-0.2935,-0.2905,-0.2801,-0.283,-0.2815,-0.301,-0.301,-0.301,0,-0.2571,-0.2673,-0.271,-0.274,-0.2846,-0.287,-0.2915,-0.2986,-0.3023,-0.3079,-0.3106,-0.3126,-0.3125,-0.3109,-0.3081,-0.3075,-0.3065,-0.305,-0.2977,-0.2973,-0.2854,-0.2838,-0.2842,-0.3036,-0.3036,-0.3036,-0.3036,0,-0.2544,-0.2569,-0.2676,-0.2695,-0.2732,-0.282,-0.2862,-0.2917,-0.2998,-0.3035,-0.3093,-0.3119,-0.3128,-0.3127,-0.3098,-0.3043,-0.3075,-0.2985,-0.2968,-0.2882,-0.287,-0.2823,-0.2834,-0.3037,-0.3036,-0.3036,-0.3036,0,-0.2446,-0.2525,-0.2565,-0.2669,-0.2696,-0.2712,-0.2821,-0.2855,-0.2948,-0.2998,-0.3016,-0.3108,-0.3115,-0.3119,-0.3098,-0.3051,-0.2961,-0.2981,-0.2885,-0.2856,-0.2763,-0.2782,-0.2731,-0.2652,-0.2907,-0.2906,-0.2904,0,-0.2401,-0.2414,-0.251,-0.2528,-0.2567,-0.2622,-0.2663,-0.2792,-0.2838,-0.2979,-0.299,-0.305,-0.3064,-0.304,-0.2988,-0.2938,-0.2907,-0.2796,-0.276,-0.2746,-0.2756,-0.2754,-0.2691,-0.265,-0.2647,-0.2645,-0.2642,0,-0.2296,-0.2329,-0.2363,-0.2403,-0.2441,-0.2497,-0.2568,-0.2608,-0.2757,-0.282,-0.2895,-0.2927,-0.2954,-0.2884,-0.2838,-0.278,-0.2726,-0.2739,-0.2743,-0.2569,-0.2547,-0.2466,-0.2676,-0.2619,-0.2621,-0.2623,-0.2624,-0.2625,-0.2191,-0.2187,-0.2231,-0.2255,-0.2301,-0.2336,-0.2337,-0.2445,-0.2506,-0.2588,-0.2717,-0.2757,-0.2766,-0.2704,-0.2652,-0.2537,-0.2571,-0.2455,-0.2486,-0.2493,-0.2387,-0.2551,-0.246,-0.2462,-0.2463,-0.2464,-0.2465,0,-0.2054,-0.2068,-0.2082,-0.2108,-0.2096,-0.2178,-0.2241,-0.2228,-0.2251,-0.2392,-0.245,-0.2543,-0.2477,-0.2495,-0.2419,-0.2318,-0.2245,-0.2257,-0.2236,-0.2186,-0.234,-0.2298,-0.2144,-0.2144,-0.2144,-0.2144,-0.2144,-0.2144,-0.1983,-0.1946,-0.1961,-0.1892,-0.1906,-0.1851,-0.1856,-0.1869,-0.1937,-0.2014,-0.2143,-0.2297,-0.2337,-0.2468,-0.234,-0.2225,-0.2154,-0.2088,-0.2105,-0.2239,-0.226,-0.2281,-0.2243,-0.208,-0.208,-0.1865,-0.1864,-0.1863]},{"header":{"parameterUnit":"m.s-1","parameterCategory":2,"la1":30.2991,"la2":30.254,"lo1":-89.0895,"lo2":-89.0444,"dy":0.0017,"dx":0.0017,"nx":28,"ny":28,"refTime":"2024-10-18T09:00:00:Z","depth":"0","parameterNumber":3,"parameterNumberName":"V-component_of_CURRENTS"},"data":[0,0,0,0,0,0,0,0,0,0,0,0,0,0,0,0,0,0,0,0,0,0,0,0,0,0,0,0,0,0,0,0,0,0,0,0,0,0,0,0,0,0,0,0,0,0,0,0,0,0,0,0,0,0,0,0,0,0,-0.0277,-0.0276,0,-0.0195,-0.0194,-0.0192,-0.0131,-0.0131,-0.0131,-0.0131,-0.0009,-0.0006,-0.0003,0,0,0,0,0,0,0,0,0,0,0,0,0,-0.0309,-0.0308,-0.0277,-0.0276,-0.0275,-0.0195,-0.0194,-0.0192,-0.0131,-0.0131,-0.0131,-0.0131,-0.001,-0.0007,-0.0003,0,0,0,0,0,0,0,0,0,0,0,0,0,-0.0265,-0.0308,-0.0277,-0.0238,-0.0234,-0.0195,-0.0194,-0.0192,-0.0131,-0.0131,-0.0131,-0.013,-0.0011,-0.0007,-0.0003,0.0018,0,0,0.0011,0.0013,0,0,0,0,0,0,0,0,-0.0267,-0.0263,-0.0244,-0.024,-0.0236,-0.0176,-0.016,-0.0121,-0.0132,-0.0167,-0.0131,-0.013,-0.0064,-0.0055,-0.0036,0.0024,0.0029,0.0012,0.0014,0.0016,0.0017,0,0,0,0,0,0,0,-0.027,-0.0266,-0.0241,-0.0243,-0.0238,-0.02,-0.0194,-0.0152,-0.0115,-0.0164,-0.016,-0.0156,-0.0061,-0.0041,-0.0033,0.0031,0.0011,0.0015,0.0018,0.002,0.0134,0.0134,0,0,0,0,0,0,-0.0291,-0.0269,-0.0244,-0.0239,-0.0255,-0.02,-0.0193,-0.0193,-0.0116,-0.0105,-0.0157,-0.0154,-0.0049,-0.0038,-0.0028,0.0008,0.0016,0.002,0.0023,0.0134,0.0134,0.0134,0,0,0,0,0,0,-0.0293,-0.029,-0.0247,-0.0254,-0.0247,-0.0201,-0.0201,-0.0191,-0.0173,-0.0112,-0.0099,-0.0149,-0.0048,-0.0035,0.0009,0.0013,0.0022,0.0027,0.0133,0.0134,0.0134,0.0077,0,0,0,0,0,0,-0.0294,-0.0291,-0.0298,-0.0256,-0.0247,-0.0232,-0.0201,-0.019,-0.0173,-0.0168,-0.0101,-0.0089,-0.0047,0.0002,0.0014,0.002,0.003,0.0133,0.0133,0.0134,0.0078,0.0075,0.0073,0,0,0,0,0,-0.0295,-0.0315,-0.0299,-0.0296,-0.0258,-0.0233,-0.0225,-0.0188,-0.0174,-0.0169,-0.012,-0.0092,0.0014,0.0006,0.0019,0.0027,0.0133,0.0133,0.0134,0.008,0.0076,0.0073,0,0,0,0,0,0,-0.0334,-0.0309,-0.0291,-0.0302,-0.0272,-0.0224,-0.0222,-0.0195,-0.0153,-0.0149,-0.0087,-0.0072,-0.0032,0.0005,-0.0006,0.0062,0.0078,0.0082,0.0032,0.0029,0.0027,0.0008,0.0034,0,0,0,0,0,-0.0347,-0.0353,-0.0316,-0.0324,-0.0314,-0.0268,-0.0254,-0.0229,-0.0188,-0.0169,-0.0119,-0.0066,-0.0018,0.0009,0.0054,0.0091,0.0131,0.0105,0.0102,0.01,0.0095,0.0158,0.016,0.0137,0.0137,0.0137,0,0,-0.0366,-0.0352,-0.0356,-0.0332,-0.0306,-0.0297,-0.0258,-0.0245,-0.0228,-0.0163,-0.0126,-0.0077,-0.0012,0.003,0.0052,0.0062,0.0128,0.0101,0.0098,0.0094,0.0159,0.0161,0.0163,0.0137,0.0137,0.0137,0,0,-0.0409,-0.0392,-0.0411,-0.0389,-0.0361,-0.0327,-0.0327,-0.028,-0.0251,-0.0213,-0.0159,-0.0108,-0.0039,0.0015,0.0049,0.0058,0.0108,0.0071,0.0047,0.0108,0.0111,0.0113,0.0166,0.0174,0.0073,0.0073,0.0073,0,-0.0434,-0.0447,-0.0412,-0.0418,-0.0405,-0.0346,-0.0353,-0.0313,-0.0255,-0.023,-0.0212,-0.0097,-0.0044,0.002,0.0024,0.0052,0.0089,0.0052,0.0104,0.0107,0.0111,0.0165,0.0174,0.0071,0.0071,0.0071,0.0071,0,-0.0485,-0.049,-0.0499,-0.0483,-0.0462,-0.046,-0.0403,-0.0372,-0.033,-0.0284,-0.0218,-0.0138,-0.0069,-0.0041,-0.0005,0.0049,0.0067,0.0088,0.0107,0.0109,0.0167,0.0177,0.0067,0.0068,0.0069,0.0069,0,0,-0.0552,-0.054,-0.0541,-0.0544,-0.0496,-0.0488,-0.0453,-0.0405,-0.0383,-0.031,-0.027,-0.0177,-0.0131,-0.0089,-0.0027,0.003,0.0089,0.0061,0.0066,0.0105,0.0218,0.0265,0.0282,0.0115,0.0117,0.0118,0.0248,0,-0.0601,-0.0636,-0.0605,-0.062,-0.063,-0.0559,-0.0533,-0.0477,-0.0414,-0.0358,-0.0259,-0.0201,-0.0148,-0.0115,-0.0049,0.0057,0.0114,0.0052,0.0219,0.0224,0.0258,0.0295,0.0334,0.0456,0.0258,0.026,0.0261,0,-0.0658,-0.0673,-0.0706,-0.069,-0.0687,-0.0679,-0.0622,-0.0589,-0.0488,-0.0439,-0.0353,-0.0274,-0.0167,-0.0131,0.0051,0.0007,0.0101,0.0182,0.0189,0.0259,0.0291,0.0425,0.0483,0.0657,0.0278,0.0277,0.0276,0,-0.0727,-0.0739,-0.077,-0.0764,-0.0736,-0.0729,-0.0703,-0.062,-0.0593,-0.0487,-0.0452,-0.0313,-0.0242,-0.0102,0.0072,0.0061,0.0268,0.0279,0.0411,0.0415,0.0496,0.0505,0.0735,0.0396,0.0396,0.0395,0.0395,0,-0.079,-0.0812,-0.0809,-0.0826,-0.0855,-0.0803,-0.0802,-0.0751,-0.0676,-0.0646,-0.0505,-0.0442,-0.0234,-0.0086,0.0063,0.028,0.0269,0.0417,0.0459,0.0477,0.0483,0.0674,0.0727,0.04,0.0399,0.0398,0.0397,0,-0.0854,-0.0852,-0.0892,-0.0889,-0.0892,-0.0911,-0.0886,-0.088,-0.0794,-0.0747,-0.0717,-0.0533,-0.0323,-0.0106,0.0138,0.027,0.0579,0.0539,0.0545,0.0584,0.0862,0.0908,0.1164,0.1251,0.0712,0.0714,0.0716,0,-0.0888,-0.0918,-0.0954,-0.0986,-0.0989,-0.1006,-0.1017,-0.0952,-0.0935,-0.0798,-0.0779,-0.0568,-0.0399,-0.0009,0.0275,0.0569,0.0683,0.0753,0.0745,0.0901,0.0983,0.1019,0.1075,0.0832,0.0834,0.0836,0.0838,0,-0.095,-0.0964,-0.0997,-0.1075,-0.111,-0.1137,-0.114,-0.1147,-0.1055,-0.0992,-0.0859,-0.071,-0.0303,0.0069,0.0457,0.0632,0.0885,0.0804,0.0979,0.1111,0.1155,0.1249,0.0713,0.0856,0.0855,0.0853,0.0852,0.0851,-0.0986,-0.1033,-0.1087,-0.1155,-0.1205,-0.1248,-0.127,-0.1249,-0.1215,-0.1095,-0.0937,-0.0682,-0.0125,0.0453,0.066,0.1114,0.1061,0.1238,0.1285,0.1311,0.1392,0.0889,0.1067,0.1066,0.1066,0.1065,0.1065,0,-0.1027,-0.1085,-0.1162,-0.1239,-0.1307,-0.131,-0.1337,-0.1337,-0.1302,-0.1137,-0.0973,-0.0374,0.0182,0.0693,0.1343,0.158,0.1625,0.1694,0.1767,0.1803,0.1387,0.1389,0.1629,0.1629,0.1629,0.1628,0.1628,0.1628,-0.105,-0.1135,-0.1183,-0.1306,-0.136,-0.1428,-0.1444,-0.1423,-0.1321,-0.104,-0.0715,-0.0446,0.032,0.1387,0.1992,0.2044,0.2221,0.2211,0.23,0.2022,0.1983,0.1946,0.1965,0.2322,0.2322,0.271,0.2714,0.2717]}],[{"header":{"parameterUnit":"m.s-1","parameterCategory":2,"la1":30.2991,"la2":30.254,"lo1":-89.0895,"lo2":-89.0444,"dy":0.0017,"dx":0.0017,"nx":28,"ny":28,"refTime":"2024-10-18T09:00:00:Z","depth":"2","parameterNumber":2,"parameterNumberName":"U-component_of_CURRENTS"},"data":[0,0,0,0,0,0,0,0,0,0,0,0,0,0,0,0,0,0,0,0,0,0,0,0,0,0,0,0,0,0,0,0,0,0,0,0,0,0,0,0,0,0,0,0,0,0,0,0,0,0,0,0,0,0,0,0,0,0,-0.2325,-0.2325,0,-0.236,-0.236,-0.236,-0.2316,-0.2314,-0.2313,-0.2312,-0.2269,-0.2269,-0.2269,0,0,0,0,0,0,0,0,0,0,0,0,0,-0.2216,-0.2218,-0.2325,-0.2325,-0.2326,-0.236,-0.236,-0.236,-0.2316,-0.2314,-0.2313,-0.2311,-0.2269,-0.2269,-0.2269,0,0,0,0,0,0,0,0,0,0,0,0,0,-0.2255,-0.2218,-0.2324,-0.231,-0.2309,-0.236,-0.236,-0.236,-0.2316,-0.2314,-0.2312,-0.231,-0.2269,-0.2269,-0.2269,-0.2311,0,0,-0.227,-0.227,0,0,0,0,0,0,0,0,-0.2253,-0.2259,-0.2312,-0.2311,-0.2311,-0.2334,-0.2306,-0.2341,-0.2317,-0.231,-0.2312,-0.2309,-0.2287,-0.2286,-0.2293,-0.2309,-0.2307,-0.227,-0.227,-0.227,-0.227,0,0,0,0,0,0,0,-0.2251,-0.2257,-0.2335,-0.2313,-0.2312,-0.2301,-0.2304,-0.2313,-0.2306,-0.2311,-0.2308,-0.2318,-0.2285,-0.2293,-0.2292,-0.2306,-0.227,-0.227,-0.227,-0.227,-0.2354,-0.2356,0,0,0,0,0,0,-0.2255,-0.2255,-0.2334,-0.2337,-0.228,-0.2305,-0.2309,-0.2326,-0.2307,-0.2304,-0.232,-0.2316,-0.2294,-0.2292,-0.229,-0.2338,-0.227,-0.227,-0.227,-0.2352,-0.2355,-0.2357,0,0,0,0,0,0,-0.2253,-0.2263,-0.2333,-0.2298,-0.2307,-0.231,-0.2329,-0.2328,-0.2331,-0.2316,-0.2309,-0.2323,-0.2292,-0.229,-0.2309,-0.2336,-0.227,-0.227,-0.235,-0.2353,-0.2356,-0.2435,0,0,0,0,0,0,-0.225,-0.2262,-0.2275,-0.2299,-0.2309,-0.2383,-0.2332,-0.233,-0.2341,-0.2336,-0.2317,-0.2311,-0.2291,-0.2309,-0.2309,-0.2335,-0.227,-0.2347,-0.2351,-0.2355,-0.2429,-0.244,-0.2449,0,0,0,0,0,-0.2246,-0.2289,-0.2275,-0.2285,-0.2328,-0.2385,-0.239,-0.2381,-0.2344,-0.237,-0.2348,-0.2312,-0.2334,-0.2312,-0.2311,-0.2337,-0.2345,-0.235,-0.2354,-0.2425,-0.2438,-0.2449,0,0,0,0,0,0,-0.2252,-0.229,-0.2275,-0.2325,-0.2356,-0.2379,-0.2405,-0.2389,-0.2393,-0.238,-0.2343,-0.2339,-0.2365,-0.2349,-0.2325,-0.2376,-0.2333,-0.2337,-0.2386,-0.2398,-0.2408,-0.2395,-0.2271,0,0,0,0,0,-0.2259,-0.2295,-0.2327,-0.2365,-0.2385,-0.2389,-0.2407,-0.2405,-0.2414,-0.2413,-0.2399,-0.2386,-0.239,-0.2389,-0.2396,-0.2427,-0.2403,-0.2444,-0.2454,-0.2462,-0.2454,-0.2449,-0.2457,-0.2373,-0.2373,-0.2372,0,0,-0.2271,-0.2296,-0.2315,-0.2368,-0.2385,-0.2423,-0.2395,-0.2439,-0.2455,-0.2409,-0.2429,-0.2424,-0.2408,-0.2442,-0.2452,-0.2427,-0.2481,-0.2468,-0.2476,-0.2462,-0.2455,-0.2463,-0.247,-0.2376,-0.2375,-0.2375,0,0,-0.2311,-0.2337,-0.2373,-0.2407,-0.2447,-0.246,-0.2473,-0.2503,-0.2505,-0.2537,-0.2501,-0.2512,-0.2524,-0.2517,-0.2511,-0.2583,-0.2536,-0.2588,-0.2623,-0.262,-0.2626,-0.2631,-0.2633,-0.2637,-0.259,-0.259,-0.259,0,-0.2316,-0.2359,-0.2395,-0.2436,-0.2459,-0.2474,-0.2509,-0.2533,-0.256,-0.2565,-0.2554,-0.2567,-0.2556,-0.2575,-0.2599,-0.2602,-0.2593,-0.2576,-0.2631,-0.2635,-0.2639,-0.2639,-0.2643,-0.2594,-0.2594,-0.2593,-0.2593,0,-0.237,-0.2405,-0.2439,-0.2483,-0.2522,-0.2566,-0.2601,-0.2633,-0.2631,-0.2639,-0.2669,-0.2668,-0.2664,-0.2677,-0.2657,-0.2684,-0.2668,-0.2646,-0.2594,-0.2652,-0.2649,-0.2652,-0.26,-0.2599,-0.2598,-0.2596,0,0,-0.2361,-0.2454,-0.2458,-0.2475,-0.2545,-0.2579,-0.2633,-0.2675,-0.2691,-0.2725,-0.2741,-0.2762,-0.2751,-0.2744,-0.273,-0.2733,-0.2762,-0.2703,-0.2701,-0.2694,-0.276,-0.27,-0.2696,-0.2746,-0.2747,-0.2747,-0.2755,0,-0.2374,-0.2444,-0.2492,-0.2545,-0.2577,-0.2624,-0.2671,-0.2714,-0.2742,-0.2774,-0.2781,-0.2797,-0.278,-0.278,-0.2784,-0.2765,-0.2769,-0.2762,-0.2714,-0.2712,-0.2642,-0.2696,-0.249,-0.2475,-0.2757,-0.2758,-0.2758,0,-0.2383,-0.2429,-0.2484,-0.2557,-0.2576,-0.2614,-0.2674,-0.2718,-0.2779,-0.2804,-0.2829,-0.2834,-0.2851,-0.2825,-0.2821,-0.2817,-0.2793,-0.2779,-0.2778,-0.2688,-0.2655,-0.246,-0.2468,-0.2761,-0.2761,-0.2761,-0.276,0,-0.2319,-0.2411,-0.2446,-0.2474,-0.257,-0.2598,-0.2642,-0.2714,-0.2751,-0.2812,-0.2841,-0.2866,-0.2871,-0.2858,-0.2834,-0.2828,-0.2823,-0.2807,-0.2733,-0.2729,-0.2524,-0.2501,-0.2797,-0.2797,-0.2797,-0.2797,-0.2797,0,-0.2296,-0.232,-0.2417,-0.2435,-0.2474,-0.2556,-0.2601,-0.2656,-0.2737,-0.2774,-0.2835,-0.2862,-0.2878,-0.2879,-0.2853,-0.2801,-0.2835,-0.2743,-0.2726,-0.255,-0.253,-0.2746,-0.274,-0.2797,-0.2797,-0.2797,-0.2797,0,-0.2209,-0.228,-0.2318,-0.2415,-0.2442,-0.2462,-0.2567,-0.2601,-0.2694,-0.2745,-0.2766,-0.2855,-0.2865,-0.2874,-0.2857,-0.2811,-0.2775,-0.2743,-0.2544,-0.2503,-0.2683,-0.2681,-0.2671,-0.2669,-0.2667,-0.2666,-0.2664,0,-0.2169,-0.218,-0.2271,-0.2287,-0.2327,-0.2383,-0.2422,-0.2546,-0.259,-0.2727,-0.2737,-0.28,-0.2808,-0.2789,-0.2731,-0.2682,-0.2734,-0.2452,-0.2399,-0.2685,-0.2669,-0.2671,-0.2671,-0.217,-0.2165,-0.2161,-0.2157,0,-0.2073,-0.2105,-0.2136,-0.2175,-0.2213,-0.2264,-0.2332,-0.237,-0.2512,-0.257,-0.2637,-0.2664,-0.2684,-0.2554,-0.2511,-0.2444,-0.2448,-0.2365,-0.2698,-0.2241,-0.2214,-0.2199,-0.2216,-0.2119,-0.2123,-0.2126,-0.2128,-0.2129,-0.1981,-0.1976,-0.2016,-0.204,-0.2084,-0.2113,-0.2111,-0.2207,-0.226,-0.2323,-0.2448,-0.243,-0.2429,-0.2276,-0.2174,-0.2095,-0.2257,-0.2131,-0.2143,-0.2159,-0.2107,-0.2079,-0.195,-0.1952,-0.1954,-0.1957,-0.1958,0,-0.1855,-0.1867,-0.1879,-0.1902,-0.1889,-0.1967,-0.202,-0.1995,-0.2006,-0.2102,-0.2141,-0.1959,-0.1905,-0.1915,-0.1754,-0.1721,-0.1684,-0.1629,-0.1578,-0.1617,-0.1651,-0.1571,-0.1272,-0.127,-0.1268,-0.1267,0,0,-0.179,-0.1753,-0.1762,-0.1695,-0.171,-0.1652,-0.1653,-0.1641,-0.1671,-0.1635,-0.1645,-0.1819,-0.187,-0.1579,-0.1504,-0.137,-0.1471,-0.1295,-0.1845,-0.1824,-0.1855,-0.1941,-0.1862,0,0,0,0,0]},{"header":{"parameterUnit":"m.s-1","parameterCategory":2,"la1":30.2991,"la2":30.254,"lo1":-89.0895,"lo2":-89.0444,"dy":0.0017,"dx":0.0017,"nx":28,"ny":28,"refTime":"2024-10-18T09:00:00:Z","depth":"2","parameterNumber":3,"parameterNumberName":"V-component_of_CURRENTS"},"data":[0,0,0,0,0,0,0,0,0,0,0,0,0,0,0,0,0,0,0,0,0,0,0,0,0,0,0,0,0,0,0,0,0,0,0,0,0,0,0,0,0,0,0,0,0,0,0,0,0,0,0,0,0,0,0,0,0,0,-0.0185,-0.0185,0,-0.0111,-0.011,-0.0108,-0.0053,-0.0053,-0.0053,-0.0052,0.006,0.0063,0.0065,0,0,0,0,0,0,0,0,0,0,0,0,0,-0.0212,-0.0212,-0.0185,-0.0184,-0.0184,-0.0111,-0.011,-0.0108,-0.0053,-0.0053,-0.0053,-0.0052,0.0059,0.0062,0.0066,0,0,0,0,0,0,0,0,0,0,0,0,0,-0.0172,-0.0212,-0.0185,-0.015,-0.0146,-0.0111,-0.0109,-0.0108,-0.0053,-0.0053,-0.0053,-0.0052,0.0058,0.0062,0.0066,0.0086,0,0,0.0079,0.0081,0,0,0,0,0,0,0,0,-0.0175,-0.0171,-0.0156,-0.0152,-0.0148,-0.0094,-0.0078,-0.0042,-0.0053,-0.0085,-0.0052,-0.0052,0.001,0.0018,0.0035,0.0091,0.0096,0.0079,0.0082,0.0084,0.0085,0,0,0,0,0,0,0,-0.0177,-0.0173,-0.0152,-0.0155,-0.0151,-0.0115,-0.0109,-0.007,-0.0037,-0.0082,-0.0079,-0.0076,0.0012,0.0031,0.0038,0.0098,0.0079,0.0083,0.0085,0.0087,0.0193,0.0193,0,0,0,0,0,0,-0.0197,-0.0176,-0.0155,-0.015,-0.0164,-0.0115,-0.0109,-0.0109,-0.0038,-0.0028,-0.0076,-0.0074,0.0024,0.0033,0.0042,0.0075,0.0084,0.0088,0.009,0.0193,0.0193,0.0193,0,0,0,0,0,0,-0.0198,-0.0196,-0.0158,-0.0164,-0.0157,-0.0116,-0.0116,-0.0108,-0.0092,-0.0035,-0.0023,-0.007,0.0024,0.0037,0.0077,0.008,0.0089,0.0093,0.0192,0.0193,0.0193,0.0138,0,0,0,0,0,0,-0.0199,-0.0197,-0.0204,-0.0166,-0.0158,-0.0146,-0.0116,-0.0106,-0.0092,-0.0088,-0.0026,-0.0015,0.0025,0.007,0.0081,0.0086,0.0097,0.0192,0.0193,0.0193,0.0139,0.0136,0.0134,0,0,0,0,0,-0.02,-0.022,-0.0205,-0.0202,-0.0169,-0.0147,-0.0139,-0.0106,-0.0093,-0.009,-0.0044,-0.0017,0.0081,0.0074,0.0086,0.0092,0.0192,0.0192,0.0193,0.014,0.0137,0.0134,0,0,0,0,0,0,-0.0238,-0.0215,-0.0198,-0.021,-0.0183,-0.0139,-0.0138,-0.0113,-0.0075,-0.0072,-0.0013,0.0001,0.0037,0.0072,0.0062,0.0125,0.0141,0.0144,0.0097,0.0094,0.0091,0.0074,0.01,0,0,0,0,0,-0.025,-0.0257,-0.0223,-0.0231,-0.0222,-0.018,-0.0168,-0.0145,-0.0108,-0.0091,-0.0044,0.0005,0.005,0.0076,0.0118,0.0152,0.019,0.0165,0.0162,0.0159,0.0155,0.0216,0.0218,0.0195,0.0195,0.0195,0,0,-0.0268,-0.0256,-0.026,-0.0239,-0.0216,-0.0208,-0.0171,-0.0161,-0.0146,-0.0085,-0.0052,-0.0006,0.0056,0.0094,0.0114,0.0125,0.0186,0.016,0.0157,0.0154,0.0217,0.0219,0.0221,0.0196,0.0196,0.0196,0,0,-0.0311,-0.0296,-0.0315,-0.0295,-0.027,-0.0238,-0.024,-0.0197,-0.017,-0.0135,-0.0084,-0.0036,0.0027,0.0079,0.0112,0.0119,0.0165,0.013,0.0108,0.0167,0.0169,0.0172,0.022,0.0227,0.0133,0.0133,0.0133,0,-0.0335,-0.0348,-0.0316,-0.0323,-0.0312,-0.0257,-0.0265,-0.0228,-0.0175,-0.0151,-0.0135,-0.0027,0.0022,0.0084,0.0087,0.0113,0.0147,0.0113,0.0162,0.0166,0.0169,0.0218,0.0227,0.013,0.0131,0.0131,0.0131,0,-0.0384,-0.039,-0.04,-0.0386,-0.0368,-0.0368,-0.0314,-0.0287,-0.0248,-0.0205,-0.0143,-0.0067,-0.0003,0.0023,0.0058,0.0109,0.0126,0.0146,0.0166,0.0168,0.022,0.023,0.0127,0.0128,0.0128,0.0129,0,0,-0.045,-0.044,-0.0442,-0.0444,-0.0401,-0.0394,-0.0363,-0.0318,-0.0298,-0.023,-0.0194,-0.0105,-0.0062,-0.0022,0.0037,0.0092,0.0147,0.0121,0.0126,0.0161,0.0269,0.0306,0.032,0.0173,0.0175,0.0176,0.0294,0,-0.0498,-0.0533,-0.0504,-0.0519,-0.0529,-0.0464,-0.044,-0.0388,-0.0329,-0.0278,-0.0183,-0.013,-0.0078,-0.0048,0.0017,0.0116,0.0171,0.0112,0.027,0.0275,0.03,0.0333,0.0292,0.0396,0.0304,0.0306,0.0307,0,-0.0554,-0.0569,-0.0601,-0.0587,-0.0584,-0.0578,-0.0526,-0.0496,-0.0401,-0.0356,-0.0275,-0.02,-0.0098,-0.0064,0.0111,0.0069,0.0157,0.0234,0.0241,0.0301,0.033,0.0382,0.0418,0.0324,0.0323,0.0322,0.0321,0,-0.062,-0.0633,-0.0662,-0.0658,-0.0631,-0.0627,-0.0604,-0.0526,-0.0502,-0.0403,-0.0373,-0.0239,-0.0173,-0.0038,0.0126,0.0118,0.0312,0.0325,0.0443,0.0446,0.0456,0.0458,0.0437,0.0437,0.0437,0.0436,0.0436,0,-0.068,-0.0702,-0.07,-0.0717,-0.0747,-0.0698,-0.07,-0.0652,-0.0583,-0.0556,-0.0424,-0.0368,-0.0166,-0.0026,0.0116,0.0318,0.0312,0.0447,0.0486,0.0436,0.0435,0.0407,0.0401,0.0441,0.044,0.0439,0.0438,0,-0.0743,-0.0741,-0.078,-0.0779,-0.0783,-0.0803,-0.0782,-0.0778,-0.0698,-0.0655,-0.0629,-0.0457,-0.0261,-0.0053,0.0179,0.0305,0.0491,0.0556,0.0481,0.0509,0.0585,0.0576,0.0706,0.0709,0.0711,0.0712,0.0714,0,-0.0776,-0.0805,-0.0841,-0.0873,-0.0878,-0.0896,-0.0909,-0.0848,-0.0834,-0.0707,-0.0692,-0.0497,-0.0341,0.0024,0.0285,0.056,0.0551,0.0663,0.0648,0.0592,0.0616,0.0603,0.0592,0.0638,0.0639,0.0639,0.064,0,-0.0837,-0.0851,-0.0883,-0.096,-0.0996,-0.1023,-0.1029,-0.1036,-0.095,-0.0894,-0.0775,-0.0638,-0.0267,0.0042,0.0402,0.0553,0.0621,0.0684,0.0663,0.0573,0.0537,0.0557,0.0546,0.0645,0.0645,0.0644,0.0644,0.0644,-0.0874,-0.092,-0.0972,-0.1039,-0.1088,-0.1131,-0.1154,-0.1134,-0.1107,-0.0994,-0.0853,-0.0625,-0.0303,0.0213,0.0469,0.0706,0.0712,0.0758,0.0752,0.0747,0.0715,0.0684,0.0813,0.0814,0.0814,0.0815,0.0815,0,-0.0916,-0.0971,-0.1046,-0.112,-0.1186,-0.1193,-0.1219,-0.1215,-0.1185,-0.1038,-0.0891,-0.0541,-0.0167,0.0166,0.0553,0.0786,0.0759,0.0808,0.0725,0.0719,0.0714,0.0677,0.0768,0.0768,0.0769,0.0769,0,0,-0.0939,-0.102,-0.1064,-0.1183,-0.1238,-0.1305,-0.1322,-0.1291,-0.1199,-0.1055,-0.0874,-0.0598,-0.0175,0.0081,0.0384,0.0582,0.058,0.0594,0.0609,0.047,0.0461,0.0669,0.0604,0,0,0,0,0]}],[{"header":{"parameterUnit":"m.s-1","parameterCategory":2,"la1":30.2991,"la2":30.254,"lo1":-89.0895,"lo2":-89.0444,"dy":0.0017,"dx":0.0017,"nx":28,"ny":28,"refTime":"2024-10-18T09:00:00:Z","depth":"4","parameterNumber":2,"parameterNumberName":"U-component_of_CURRENTS"},"data":[0,0,0,0,0,0,0,0,0,0,0,0,0,0,0,0,0,0,0,0,0,0,0,0,0,0,0,0,0,0,0,0,0,0,0,0,0,0,0,0,0,0,0,0,0,0,0,0,0,0,0,0,0,0,0,0,0,0,-0.162,-0.162,0,-0.1679,-0.168,-0.168,-0.1699,-0.1699,-0.1699,-0.1699,-0.1732,-0.1733,-0.1734,0,0,0,0,0,0,0,0,0,0,0,0,0,-0.1523,-0.1524,-0.1619,-0.162,-0.1621,-0.1679,-0.168,-0.168,-0.1699,-0.1699,-0.1699,-0.1699,-0.1732,-0.1733,-0.1734,0,0,0,0,0,0,0,0,0,0,0,0,0,-0.157,-0.1525,-0.1619,-0.1639,-0.1642,-0.1679,-0.168,-0.1681,-0.1699,-0.1699,-0.1699,-0.1699,-0.1732,-0.1733,-0.1734,-0.1746,0,0,-0.1739,-0.174,0,0,0,0,0,0,0,0,-0.1567,-0.1573,-0.1635,-0.1638,-0.1641,-0.1684,-0.1658,-0.1702,-0.1699,-0.1675,-0.1699,-0.1699,-0.1715,-0.1718,-0.1727,-0.1747,-0.1749,-0.1739,-0.174,-0.1741,-0.1741,0,0,0,0,0,0,0,-0.1564,-0.1571,-0.1641,-0.1636,-0.164,-0.1646,-0.1652,-0.1666,-0.1693,-0.1677,-0.1679,-0.1689,-0.1716,-0.1725,-0.1727,-0.1749,-0.1739,-0.174,-0.1741,-0.1742,-0.1852,-0.1854,0,0,0,0,0,0,-0.1561,-0.1568,-0.1639,-0.1643,-0.1606,-0.1648,-0.1655,-0.1668,-0.1693,-0.1698,-0.1689,-0.169,-0.1723,-0.1726,-0.1729,-0.1812,-0.1741,-0.1742,-0.1743,-0.185,-0.1853,-0.1855,0,0,0,0,0,0,-0.1559,-0.1567,-0.1637,-0.1608,-0.1618,-0.165,-0.1665,-0.1669,-0.1702,-0.1703,-0.1707,-0.172,-0.1723,-0.1727,-0.1772,-0.1811,-0.1743,-0.1744,-0.1848,-0.1851,-0.1854,-0.1935,0,0,0,0,0,0,-0.1556,-0.1566,-0.1588,-0.1608,-0.1619,-0.1686,-0.1665,-0.1671,-0.1708,-0.171,-0.173,-0.1732,-0.1723,-0.177,-0.1773,-0.1811,-0.1745,-0.1845,-0.1849,-0.1853,-0.1929,-0.194,-0.1949,0,0,0,0,0,-0.1552,-0.1587,-0.1589,-0.1598,-0.1644,-0.1688,-0.1695,-0.1715,-0.171,-0.174,-0.1752,-0.1732,-0.1797,-0.1773,-0.1777,-0.1816,-0.1843,-0.1848,-0.1853,-0.1925,-0.1938,-0.1949,0,0,0,0,0,0,-0.1561,-0.1593,-0.1595,-0.1639,-0.1671,-0.1693,-0.1728,-0.1732,-0.1765,-0.1772,-0.176,-0.1764,-0.1818,-0.1809,-0.1783,-0.186,-0.1816,-0.1822,-0.187,-0.1882,-0.1892,-0.188,-0.1746,0,0,0,0,0,-0.1571,-0.1605,-0.1632,-0.167,-0.169,-0.1711,-0.1734,-0.1749,-0.1774,-0.1789,-0.1803,-0.1818,-0.1836,-0.1854,-0.187,-0.1914,-0.1892,-0.1942,-0.1952,-0.196,-0.1954,-0.1957,-0.1966,-0.187,-0.187,-0.187,0,0,-0.1586,-0.1608,-0.1628,-0.1674,-0.17,-0.1736,-0.1726,-0.1777,-0.1808,-0.1787,-0.1847,-0.1857,-0.1857,-0.1907,-0.193,-0.1907,-0.1981,-0.1966,-0.1974,-0.1962,-0.1963,-0.1972,-0.198,-0.1873,-0.1873,-0.1872,0,0,-0.1619,-0.1653,-0.1685,-0.1717,-0.1765,-0.1781,-0.1801,-0.1842,-0.1868,-0.1922,-0.1912,-0.1946,-0.1984,-0.1989,-0.1993,-0.2068,-0.2034,-0.2082,-0.2123,-0.2128,-0.2135,-0.2141,-0.214,-0.2145,-0.2087,-0.2087,-0.2087,0,-0.1635,-0.1671,-0.1704,-0.1741,-0.1771,-0.1803,-0.1839,-0.1875,-0.1927,-0.1949,-0.1956,-0.2011,-0.2018,-0.2055,-0.2084,-0.209,-0.2083,-0.2077,-0.2139,-0.2145,-0.2149,-0.2146,-0.2151,-0.2092,-0.2091,-0.2091,-0.209,0,-0.1673,-0.1716,-0.1745,-0.1794,-0.1835,-0.1882,-0.1927,-0.1977,-0.2009,-0.2032,-0.2095,-0.2112,-0.2135,-0.2155,-0.2143,-0.2188,-0.217,-0.215,-0.2104,-0.2163,-0.2157,-0.216,-0.2098,-0.2096,-0.2095,-0.2094,0,0,-0.1661,-0.1752,-0.1762,-0.179,-0.1867,-0.1899,-0.1971,-0.2029,-0.2067,-0.2129,-0.2171,-0.2218,-0.2225,-0.2229,-0.2228,-0.224,-0.2279,-0.2217,-0.2215,-0.2207,-0.2289,-0.2145,-0.2134,-0.2271,-0.2272,-0.2273,-0.2276,0,-0.1676,-0.1742,-0.1789,-0.1858,-0.1892,-0.1955,-0.2014,-0.2076,-0.2128,-0.2185,-0.2216,-0.2259,-0.2253,-0.2272,-0.2287,-0.2278,-0.2289,-0.2279,-0.2239,-0.2238,-0.2094,-0.2133,-0.2275,-0.2278,-0.2278,-0.2279,-0.2279,0,-0.1675,-0.1722,-0.1789,-0.1877,-0.1901,-0.1954,-0.2044,-0.21,-0.2185,-0.2229,-0.2279,-0.2301,-0.2341,-0.2323,-0.2339,-0.2335,-0.2318,-0.2309,-0.2308,-0.214,-0.2098,-0.2203,-0.2285,-0.2284,-0.2284,-0.2283,-0.2283,0,-0.1614,-0.1715,-0.1766,-0.1799,-0.1909,-0.1958,-0.2019,-0.2112,-0.216,-0.2252,-0.2292,-0.2342,-0.2367,-0.2367,-0.2354,-0.2353,-0.2355,-0.2344,-0.22,-0.219,-0.2283,-0.2276,-0.2346,-0.2346,-0.2346,-0.2346,-0.2346,0,-0.1581,-0.1625,-0.1748,-0.1774,-0.184,-0.1931,-0.2006,-0.2075,-0.2173,-0.2217,-0.2302,-0.2328,-0.238,-0.2387,-0.237,-0.2285,-0.2364,-0.2202,-0.2177,-0.2321,-0.2318,-0.2286,-0.2279,-0.2346,-0.2346,-0.2346,-0.2346,0,-0.1494,-0.1579,-0.1642,-0.1769,-0.181,-0.1855,-0.1988,-0.2032,-0.2143,-0.2201,-0.2232,-0.2326,-0.2331,-0.2359,-0.2356,-0.228,-0.2231,-0.2182,-0.2338,-0.2322,-0.2065,-0.2062,-0.202,-0.2014,-0.201,-0.2006,-0.2003,0,-0.1451,-0.1476,-0.1612,-0.1649,-0.1711,-0.18,-0.1853,-0.1991,-0.2033,-0.2171,-0.2173,-0.224,-0.2279,-0.2158,-0.2207,-0.2159,-0.2132,-0.2094,-0.2074,-0.2049,-0.203,-0.2034,-0.2038,-0.1996,-0.1995,-0.1994,-0.1993,0,-0.1357,-0.142,-0.1472,-0.1546,-0.1614,-0.1682,-0.177,-0.179,-0.1931,-0.2057,-0.2055,-0.2057,-0.2061,-0.2054,-0.203,-0.1997,-0.2112,-0.2048,-0.2057,-0.2037,-0.202,-0.2007,-0.2015,-0.1978,-0.198,-0.1981,-0.1982,0,-0.1284,-0.1295,-0.1369,-0.142,-0.1499,-0.1526,-0.1601,-0.1649,-0.1711,-0.1871,-0.1862,-0.194,-0.2035,-0.1969,-0.1947,-0.1903,-0.1874,-0.1805,-0.1827,-0.1844,-0.1783,-0.1736,-0.1577,0,0,0,0,0,-0.1201,-0.1197,-0.1234,-0.1284,-0.1356,-0.1401,-0.1521,-0.1602,-0.1745,-0.1691,-0.1774,-0.1771,-0.1753,-0.1796,-0.1712,-0.1865,-0.1879,-0.1759,-0.1811,-0.1893,-0.1911,-0.1855,0,0,0,0,0,0,-0.1145,-0.1171,-0.1182,-0.1151,-0.116,-0.1224,-0.1295,-0.1402,-0.1388,-0.1538,-0.1535,-0.1649,-0.1654,-0.1763,-0.1668,-0.168,-0.1673,-0.1818,-0.1813,-0.1883,-0.1899,-0.1913,-0.1862,0,0,0,0,0]},{"header":{"parameterUnit":"m.s-1","parameterCategory":2,"la1":30.2991,"la2":30.254,"lo1":-89.0895,"lo2":-89.0444,"dy":0.0017,"dx":0.0017,"nx":28,"ny":28,"refTime":"2024-10-18T09:00:00:Z","depth":"4","parameterNumber":3,"parameterNumberName":"V-component_of_CURRENTS"},"data":[0,0,0,0,0,0,0,0,0,0,0,0,0,0,0,0,0,0,0,0,0,0,0,0,0,0,0,0,0,0,0,0,0,0,0,0,0,0,0,0,0,0,0,0,0,0,0,0,0,0,0,0,0,0,0,0,0,0,-0.0099,-0.0098,0,-0.005,-0.0049,-0.0049,-0.0009,-0.0009,-0.0009,-0.0009,0.0079,0.0081,0.0084,0,0,0,0,0,0,0,0,0,0,0,0,0,-0.0108,-0.0108,-0.0099,-0.0098,-0.0098,-0.005,-0.0049,-0.0048,-0.0009,-0.0009,-0.0009,-0.0009,0.0079,0.0081,0.0084,0,0,0,0,0,0,0,0,0,0,0,0,0,-0.0084,-0.0108,-0.0099,-0.0074,-0.0072,-0.005,-0.0049,-0.0048,-0.0009,-0.0009,-0.0009,-0.0008,0.0078,0.0081,0.0084,0.0099,0,0,0.0094,0.0096,0,0,0,0,0,0,0,0,-0.0085,-0.0083,-0.0078,-0.0076,-0.0073,-0.0038,-0.0021,0.0002,-0.0009,-0.003,-0.0009,-0.0008,0.0042,0.0048,0.006,0.0103,0.0107,0.0094,0.0096,0.0098,0.0099,0,0,0,0,0,0,0,-0.0087,-0.0085,-0.0077,-0.0078,-0.0075,-0.0049,-0.0046,-0.0016,0.0006,-0.0028,-0.0026,-0.0025,0.0044,0.0057,0.0062,0.0108,0.0094,0.0097,0.0099,0.0101,0.0184,0.0184,0,0,0,0,0,0,-0.0101,-0.0087,-0.0078,-0.0076,-0.0082,-0.005,-0.0046,-0.0047,0.0005,0.0013,-0.0025,-0.0023,0.0051,0.0058,0.0065,0.0091,0.0098,0.0101,0.0103,0.0183,0.0184,0.0184,0,0,0,0,0,0,-0.0102,-0.0101,-0.008,-0.0082,-0.0078,-0.0051,-0.0052,-0.0047,-0.0037,0.0007,0.0016,-0.0022,0.0051,0.0061,0.0092,0.0094,0.0102,0.0105,0.0183,0.0183,0.0184,0.0138,0,0,0,0,0,0,-0.0102,-0.0102,-0.0109,-0.0083,-0.0078,-0.0076,-0.0053,-0.0046,-0.0038,-0.0035,0.0012,0.0021,0.0052,0.0087,0.0095,0.0099,0.0108,0.0183,0.0183,0.0184,0.014,0.0137,0.0135,0,0,0,0,0,-0.0103,-0.0119,-0.0109,-0.0108,-0.0089,-0.0076,-0.0071,-0.0049,-0.0038,-0.0038,-0.0002,0.0019,0.0096,0.009,0.0099,0.0104,0.0183,0.0183,0.0184,0.0141,0.0138,0.0135,0,0,0,0,0,0,-0.0128,-0.0116,-0.0105,-0.0117,-0.01,-0.0071,-0.0073,-0.0055,-0.0027,-0.0024,0.0022,0.0033,0.006,0.0089,0.008,0.013,0.0143,0.0146,0.0107,0.0105,0.0103,0.0089,0.0111,0,0,0,0,0,-0.0138,-0.0146,-0.0125,-0.0134,-0.0129,-0.0101,-0.0094,-0.0079,-0.0052,-0.0039,-0.0004,0.0036,0.007,0.0091,0.0123,0.015,0.0182,0.0161,0.0159,0.0156,0.0153,0.0206,0.0208,0.0186,0.0186,0.0186,0,0,-0.0152,-0.0146,-0.0151,-0.014,-0.0126,-0.0123,-0.0096,-0.0092,-0.0083,-0.0034,-0.0011,0.0025,0.0074,0.0105,0.012,0.0129,0.0179,0.0157,0.0155,0.0153,0.0207,0.0209,0.0211,0.0186,0.0186,0.0186,0,0,-0.0185,-0.0177,-0.0194,-0.0183,-0.0169,-0.0148,-0.015,-0.0121,-0.0103,-0.0078,-0.0038,0.0001,0.0049,0.0092,0.0118,0.0124,0.0161,0.0132,0.0115,0.0167,0.0169,0.0171,0.0208,0.0214,0.0136,0.0136,0.0135,0,-0.0203,-0.0218,-0.0197,-0.0205,-0.0201,-0.0162,-0.0172,-0.0147,-0.0109,-0.0092,-0.0079,0.0006,0.0045,0.0096,0.0098,0.0119,0.0147,0.0119,0.0163,0.0166,0.0169,0.0206,0.0213,0.0133,0.0134,0.0134,0.0134,0,-0.0243,-0.0252,-0.0261,-0.0257,-0.0247,-0.0251,-0.0215,-0.0196,-0.0168,-0.0137,-0.0089,-0.0028,0.0024,0.0046,0.0073,0.0118,0.0129,0.0149,0.0166,0.0168,0.0208,0.0216,0.013,0.0131,0.0132,0.0132,0,0,-0.0289,-0.0291,-0.0294,-0.03,-0.0275,-0.0274,-0.0254,-0.0224,-0.0211,-0.0159,-0.0133,-0.006,-0.0024,0.0008,0.0057,0.0106,0.0152,0.013,0.0134,0.016,0.0254,0.0235,0.0243,0.0177,0.0178,0.0179,0.027,0,-0.0326,-0.0359,-0.0343,-0.0363,-0.0374,-0.0331,-0.0317,-0.0281,-0.0239,-0.0202,-0.0124,-0.0084,-0.0038,-0.0014,0.0043,0.0125,0.0172,0.0125,0.0254,0.0258,0.0236,0.0251,0.0184,0.0276,0.0278,0.028,0.0281,0,-0.0367,-0.0384,-0.0417,-0.0417,-0.0418,-0.0421,-0.039,-0.0371,-0.0302,-0.0268,-0.0203,-0.0144,-0.0058,-0.0027,0.0121,0.0087,0.0161,0.0225,0.0231,0.0234,0.0254,0.0277,0.0296,0.0295,0.0294,0.0293,0.0292,0,-0.041,-0.0432,-0.0463,-0.0464,-0.0457,-0.0461,-0.045,-0.0397,-0.0382,-0.0309,-0.0289,-0.0176,-0.0122,-0.0008,0.0128,0.0125,0.0283,0.03,0.0354,0.0354,0.0362,0.0359,0.0395,0.0395,0.0395,0.0394,0.0394,0,-0.0448,-0.0473,-0.0492,-0.0509,-0.0545,-0.0516,-0.053,-0.0497,-0.0452,-0.0434,-0.0332,-0.0291,-0.0116,-0.0003,0.0116,0.026,0.0281,0.0352,0.0379,0.0341,0.0334,0.0368,0.0364,0.0398,0.0397,0.0396,0.0396,0,-0.0483,-0.0495,-0.0537,-0.0557,-0.0569,-0.0594,-0.06,-0.0601,-0.0548,-0.052,-0.0502,-0.0369,-0.0214,-0.0042,0.0153,0.0239,0.038,0.0422,0.036,0.0382,0.0418,0.041,0.0493,0.0493,0.0493,0.0494,0.0494,0,-0.05,-0.0527,-0.0584,-0.0621,-0.0637,-0.0669,-0.0691,-0.0658,-0.0651,-0.0566,-0.0555,-0.0409,-0.0301,-0.004,0.0138,0.0369,0.0396,0.0458,0.0446,0.0412,0.043,0.0422,0.0414,0.0494,0.0494,0.0494,0.0494,0,-0.0531,-0.0558,-0.0593,-0.0677,-0.0724,-0.0763,-0.0785,-0.0787,-0.0732,-0.0694,-0.0588,-0.0439,-0.0265,-0.005,0.0132,0.0294,0.0414,0.046,0.0461,0.0451,0.0414,0.043,0.0422,0.0494,0.0494,0.0494,0.0494,0,-0.0552,-0.0591,-0.0649,-0.0716,-0.0785,-0.0828,-0.0835,-0.0812,-0.0793,-0.0689,-0.0659,-0.0456,-0.0332,-0.0089,0.0075,0.0239,0.0277,0.0313,0.0322,0.0323,0.0247,0.0173,0.0205,0,0,0,0,0,-0.0564,-0.0612,-0.0683,-0.0753,-0.0823,-0.0859,-0.0883,-0.0871,-0.0824,-0.076,-0.0701,-0.0535,-0.0268,-0.0152,0.001,0.0072,0.0297,0.0263,0.034,0.0497,0.0496,0.0434,0,0,0,0,0,0,-0.0574,-0.0642,-0.0682,-0.0769,-0.0823,-0.0888,-0.0906,-0.0876,-0.0825,-0.0758,-0.0614,-0.052,-0.0259,-0.0359,0.0006,0.0057,0.012,0.0396,0.0399,0.0497,0.0497,0.0496,0.0432,0,0,0,0,0]}]]